Pembrey Sands, United Kingdom

4:41 AM BST on June 28, 2017 (GMT +0100)
Pembrey Sands

Weather History for EGOP - October, 2012

Change the Weather History Date:

Monday, October 8, 2012

  Actual Average Record
Temperature  
Mean Temperature 54 °F -  
Max Temperature 57 °F - - ()
Min Temperature 51 °F - - ()
Degree Days  
Heating Degree Days 11    
Growing Degree Days 4 (Base 50)    
Moisture  
Dew Point 53 °F    
Average Humidity 92    
Maximum Humidity 100    
Minimum Humidity 73    
Precipitation  
Precipitation 0.04 in - - ()
Sea Level Pressure  
Sea Level Pressure 29.92 in    
Wind  
Wind Speed 8 mph ()    
Max Wind Speed 13 mph    
Max Gust Speed -    
Visibility 5.9 miles    
Events      
T = Trace of Precipitation, MM = Missing Value Source: Averaged Metar Reports

Daily Weather History Graph

Daily Weather History Graph

Search for Another Location

Airport or City:

Trip Planner

Search our weather history database for the weather conditions in past years. The results will help you decide how hot, cold, wet, or windy it might be!

Date:

Astronomy

Oct. 08, 2012 Rise Set
Actual Time 7:30 AM BST 6:38 PM BST
Civil Twilight 6:56 AM BST 7:11 PM BST
Nautical Twilight 6:18 AM BST 7:50 PM BST
Astronomical Twilight 5:38 AM BST 8:29 PM BST
Moon No Moon Rise 3:03 PM BST (10/8)
Length of Visible Light 12h 15m
Length of Day
11h 08m
Waning Gibbous, 48% of the Moon is Illuminated
Oct 8
Waning Gibbous
Oct 15
New
Oct 22
First Quarter
Oct 29
Full
Nov 7
Last Quarter

Hourly Weather History & Observations

Time (BST) Temp. Dew Point Humidity Pressure Visibility Wind Dir Wind Speed Gust Speed Precip Events Conditions
12:50 AM 54 °F 48 °F 73% 30.04 in 19 mi East 10.4 mph - -   Overcast
12:50 AM 53.6 °F 48.2 °F 82% 30.04 in 6.2 mi East 10.4 mph - N/A   Overcast
1:50 AM 53.6 °F 50.0 °F 88% 30.01 in - ESE 12.7 mph - N/A   Mostly Cloudy
2:50 AM 53.6 °F 50.0 °F 88% 29.98 in 6.2 mi East 10.4 mph - N/A   Mostly Cloudy
3:50 AM 53 °F 51 °F 92% 29.96 in 3 mi East 11.5 mph - -   Scattered Clouds
3:50 AM 53.6 °F 51.8 °F 94% 29.95 in - East 11.5 mph - N/A   Mostly Cloudy
4:50 AM 53.6 °F 51.8 °F 94% 29.92 in - East 11.5 mph - N/A   Mostly Cloudy
5:50 AM 53.6 °F 51.8 °F 94% 29.89 in 5.0 mi East 10.4 mph - N/A   Mostly Cloudy
6:50 AM 54 °F 53 °F 94% 29.91 in 5 mi East 8.1 mph - -   Mostly Cloudy
6:50 AM 53.6 °F 53.6 °F 100% 29.89 in 5.0 mi East 8.1 mph - N/A   Mostly Cloudy
7:50 AM 53.6 °F 53.6 °F 100% 29.89 in 3.7 mi East 6.9 mph - N/A   Overcast
8:50 AM 53.6 °F 53.6 °F 100% 29.89 in 1.9 mi ENE 5.8 mph - N/A   Light Drizzle
9:50 AM 54 °F 53 °F 95% 29.91 in 2 mi NE 6.9 mph - -   Overcast
9:50 AM 53.6 °F 53.6 °F 100% 29.89 in 2.2 mi NE 6.9 mph - N/A   Light Drizzle
10:50 AM 53.6 °F 53.6 °F 100% 29.89 in 1.9 mi ENE 6.9 mph - N/A   Light Drizzle
11:50 AM 55.4 °F 53.6 °F 94% 29.89 in 3.1 mi NE 6.9 mph - N/A   Overcast
12:50 PM 55 °F 54 °F 97% 29.90 in 3 mi ENE 8.1 mph - -   Overcast
12:50 PM 55.4 °F 53.6 °F 94% 29.89 in 3.1 mi ENE 8.1 mph - N/A   Light Drizzle
1:50 PM 57.2 °F 55.4 °F 94% 29.89 in 6.2 mi ENE 6.9 mph - N/A   Overcast
2:50 PM 57.2 °F 55.4 °F 94% 29.89 in 6.2 mi NE 8.1 mph - N/A   Overcast
3:50 PM 58 °F 55 °F 85% 29.89 in 22 mi NE 6.9 mph - -   Overcast
3:50 PM 57.2 °F 55.4 °F 94% 29.89 in 6.2 mi NE 6.9 mph - N/A   Overcast
4:50 PM 57.2 °F 53.6 °F 88% 29.86 in 6.2 mi NE 6.9 mph - N/A   Overcast
5:50 PM 57.2 °F 53.6 °F 88% 29.89 in 6.2 mi ENE 6.9 mph - N/A   Overcast
6:50 PM 56 °F 53 °F 86% 29.90 in 19 mi NE 8.1 mph - -   Scattered Clouds
6:50 PM 55.4 °F 53.6 °F 94% 29.89 in 6.2 mi NE 8.1 mph - N/A   Mostly Cloudy
7:50 PM 55.4 °F 51.8 °F 88% 29.89 in 6.2 mi ENE 6.9 mph - N/A   Mostly Cloudy
8:50 PM 55.4 °F 51.8 °F 88% 29.92 in 6.2 mi ENE 5.8 mph - N/A   Mostly Cloudy
9:50 PM 54 °F 52 °F 92% 29.94 in 7 mi ENE 6.9 mph - -   Scattered Clouds
9:50 PM 53.6 °F 51.8 °F 94% 29.92 in 6.2 mi ENE 6.9 mph - N/A   Mostly Cloudy
10:50 PM 53.6 °F 51.8 °F 94% 29.92 in 6.2 mi ENE 5.8 mph - N/A   Mostly Cloudy
11:50 PM 53.6 °F 51.8 °F 94% 29.92 in 5.6 mi East 5.8 mph - N/A   Overcast